FLOCK 3P'-1

Last updated on Wed Feb 14 2018 16:20:56 GMT+0000 (Greenwich Mean Time)

1 43121U 18004L 18044.74885541 .00000745 00000-0 35728-4 0 9998 2 43121 97.5509 107.0049 0011168 159.0359 201.1337 15.22035236 4862
UTC large
Height (km)
Speed (km/s)
/
Latitude / Longitude
Inclination (degrees)
Orbital Period (minutes)
Azimuth
Elevation
Range (km)
Doppler Factor

Next 0 passes for location: London (51.5072 / 0.1276)

Sorry there are no passes over London.